TimeMDT,TemperatureF,Dew PointF,Humidity,Sea Level PressureIn,VisibilityMPH,Wind Direction,Wind SpeedMPH,Gust SpeedMPH,PrecipitationIn,Events,Conditions,WindDirDegrees,DateUTC
12:15 AM,53.6,39.2,58,29.95,10.0,Calm,Calm,-,N/A,,Clear,0,2013-10-02 06:15:00
12:35 AM,53.6,37.4,54,29.95,10.0,Calm,Calm,-,N/A,,Clear,0,2013-10-02 06:35:00
12:55 AM,51.8,39.2,62,29.96,10.0,Calm,Calm,-,N/A,,Clear,0,2013-10-02 06:55:00
1:15 AM,51.8,39.2,62,29.96,10.0,NW,4.6,-,N/A,,Clear,320,2013-10-02 07:15:00
1:35 AM,53.6,41.0,62,29.96,10.0,WSW,3.5,-,N/A,,Clear,250,2013-10-02 07:35:00
1:55 AM,53.6,42.8,67,29.97,10.0,NNW,6.9,-,N/A,,Clear,340,2013-10-02 07:55:00
2:15 AM,53.6,44.6,72,29.97,10.0,Calm,Calm,-,N/A,,Clear,0,2013-10-02 08:15:00
2:35 AM,51.8,42.8,71,29.98,10.0,Calm,Calm,-,N/A,,Clear,0,2013-10-02 08:35:00
2:55 AM,53.6,42.8,67,29.97,10.0,NNW,5.8,-,N/A,,Clear,330,2013-10-02 08:55:00
3:15 AM,50.0,42.8,76,29.97,10.0,NW,5.8,-,N/A,,Clear,310,2013-10-02 09:15:00
3:35 AM,50.0,42.8,76,29.98,10.0,NNE,3.5,-,N/A,,Clear,20,2013-10-02 09:35:00
3:55 AM,51.8,42.8,71,29.98,10.0,NW,12.7,16.1,N/A,,Clear,320,2013-10-02 09:55:00
4:15 AM,55.4,41.0,58,29.98,10.0,NW,13.8,-,N/A,,Clear,320,2013-10-02 10:15:00
4:35 AM,51.8,41.0,67,29.99,10.0,NNW,4.6,-,N/A,,Clear,340,2013-10-02 10:35:00
5:15 AM,46.4,37.4,71,30.00,10.0,Calm,Calm,-,N/A,,Clear,0,2013-10-02 11:15:00
5:35 AM,50.0,41.0,71,30.01,10.0,Calm,Calm,-,N/A,,Clear,0,2013-10-02 11:35:00
5:55 AM,51.8,41.0,67,30.00,10.0,WNW,11.5,-,N/A,,Clear,300,2013-10-02 11:55:00
6:15 AM,48.2,37.4,66,30.01,10.0,Calm,Calm,-,N/A,,Clear,0,2013-10-02 12:15:00
6:35 AM,44.6,39.2,81,30.01,10.0,Calm,Calm,-,N/A,,Clear,0,2013-10-02 12:35:00
6:48 AM,48.2,39.2,71,30.01,15.0,Calm,Calm,-,N/A,,Scattered Clouds,0,2013-10-02 12:48:00
7:55 AM,51.8,42.8,71,30.02,15.0,SSW,6.9,-,N/A,,Mostly Cloudy,210,2013-10-02 13:55:00
8:47 AM,53.6,44.6,72,30.03,15.0,East,4.6,-,N/A,,Mostly Cloudy,100,2013-10-02 14:47:00
9:49 AM,55.4,42.8,63,30.03,15.0,Calm,Calm,-,N/A,,Mostly Cloudy,0,2013-10-02 15:49:00
10:51 AM,57.2,39.2,51,30.02,15.0,West,5.8,-,N/A,,Mostly Cloudy,260,2013-10-02 16:51:00
11:50 AM,59.0,41.0,51,29.99,15.0,Variable,5.8,-,N/A,,Mostly Cloudy,0,2013-10-02 17:50:00
12:50 PM,60.8,42.8,52,29.97,15.0,Variable,3.5,-,N/A,,Mostly Cloudy,0,2013-10-02 18:50:00
2:50 PM,66.2,48.2,52,29.89,15.0,Variable,5.8,-,N/A,,Mostly Cloudy,0,2013-10-02 20:50:00
3:50 PM,69.8,48.2,46,29.87,15.0,Variable,5.8,-,N/A,,Mostly Cloudy,0,2013-10-02 21:50:00
4:51 PM,69.8,41.0,35,29.84,15.0,Variable,4.6,-,N/A,,Mostly Cloudy,0,2013-10-02 22:51:00
5:47 PM,64.4,44.6,49,29.82,15.0,NW,9.2,-,N/A,,Mostly Cloudy,320,2013-10-02 23:47:00
6:58 PM,60.8,42.8,52,29.80,15.0,WNW,17.3,33.4,N/A,,Mostly Cloudy,300,2013-10-03 00:58:00
7:58 PM,57.2,44.6,63,29.84,15.0,WNW,17.3,28.8,N/A,,Overcast,300,2013-10-03 01:58:00
8:55 PM,55.4,42.8,63,29.87,15.0,WNW,11.5,-,N/A,,Mostly Cloudy,300,2013-10-03 02:55:00
9:15 PM,55.4,42.8,63,29.88,10.0,NW,10.4,-,N/A,,Partly Cloudy,310,2013-10-03 03:15:00
9:35 PM,55.4,42.8,63,29.88,10.0,NNW,12.7,-,N/A,,Mostly Cloudy,330,2013-10-03 03:35:00
9:55 PM,55.4,42.8,63,29.89,10.0,North,5.8,-,N/A,,Mostly Cloudy,350,2013-10-03 03:55:00
10:15 PM,53.6,42.8,67,29.89,10.0,WNW,10.4,-,N/A,,Mostly Cloudy,300,2013-10-03 04:15:00
10:35 PM,53.6,44.6,72,29.88,10.0,NNE,8.1,-,N/A,,Mostly Cloudy,30,2013-10-03 04:35:00
10:55 PM,53.6,46.4,77,29.88,10.0,NNE,10.4,-,N/A,,Mostly Cloudy,30,2013-10-03 04:55:00
11:15 PM,51.8,46.4,82,29.88,10.0,ENE,8.1,-,N/A,,Mostly Cloudy,70,2013-10-03 05:15:00
11:35 PM,51.8,46.4,82,29.88,10.0,SSW,8.1,-,N/A,,Mostly Cloudy,210,2013-10-03 05:35:00
11:55 PM,51.8,48.2,88,29.85,10.0,East,6.9,-,N/A,,Overcast,90,2013-10-03 05:55:00